www.pogodaiklimat.ru
ПОГОДА в Палембанге
Время
(UTC), дата
06 10.11
09 10.11
12 10.11
15 10.11
18 10.11
21 10.11
00 11.11
03 11.11
06 11.11
09 11.11
12 11.11
15 11.11
18 11.11
21 11.11
00 12.11
03 12.11
06 12.11
09 12.11
12 12.11
15 12.11
18 12.11
21 12.11
00 13.11
03 13.11
06 13.11
09 13.11
12 13.11
15 13.11
18 13.11
21 13.11
00 14.11
03 14.11
06 14.11
09 14.11
12 14.11
15 14.11
18 14.11
21 14.11
00 15.11
03 15.11
06 15.11
09 15.11
12 15.11
15 15.11
18 15.11
21 15.11
00 16.11
03 16.11
06 16.11
09 16.11
12 16.11
15 16.11
18 16.11
21 16.11
00 17.11
03 17.11
Ветер
(напр.,м/с)
Видим. Явления Облачность Т
(С)
Тd
(С)
f
(%)
Тe
(С)
Тes
(С)
Комфортность P
(гПа)
Po
(гПа)
Тmin
(С)
Tmax
(С)
R
(мм)
R24
(мм)
S
(см)
Ю 2 8000 м дым 9/4 300 м
[Cu hum Ac trans Ci fib]
+34.7 +21.4 46 +42 +49 опасность
перегрева
1007.9 1006.5
З 1 6000 м дым 8/3 300 м
[Cu hum Ac trans Ci fib]
+35.7 +20.8 42 +43 +45 опасность
перегрева
1005.5 1004.1
В 3 5000 м дым 8/3 300 м
[Cu hum Ac trans Ci fib]
+32.2 +24.1 62 +44 +44 опасность
перегрева
1008.1 1006.7 +36.0
ЮВ 4 1000 м дым ?/? +28.7 +23.2 72 +39 +39 очень
душно
1010.1 1008.7
СВ 1 2000 м дым 6/1 300 м
[Cu hum Ac trans Ci fib]
+27.0 +23.0 79 +36 +36 очень
душно
1009.4 1007.9
ЮВ 4 3000 м дым 6/0
[Ac trans Ci fib]
+26.5 +21.1 72 +33 +33 очень
душно
1009.0 1007.6
Ю 2 2000 м дым 6/0
[Ac trans Ci fib]
+26.2 +21.8 77 +34 +35 очень
душно
1010.8 1009.4 +25.1
Ю 5 8000 м дым 8/4 300 м
[Cu hum Ac trans Ci fib]
+32.0 +21.4 54 +40 +43 очень
душно
1010.8 1009.4
Ю 6 10 км 8/4 300 м
[Cu hum Ac trans Ci fib]
+34.8 +20.6 44 +42 +45 опасность
перегрева
1007.6 1006.2
З 3 4000 м дым 9/5 300 м
[Cu hum Ac trans Ci fib]
+33.2 +21.7 51 +41 +43 опасность
перегрева
1005.8 1004.4
В 2 3000 м дым 8/4 300 м
[Cu hum Ac trans Ci fib]
+30.7 +23.5 66 +42 +42 опасность
перегрева
1008.1 1006.7 +35.3
В 2 4000 м дым 6/3 300 м
[Cu hum Ac trans Ci fib]
+29.1 +22.9 69 +39 +39 очень
душно
1010.2 1008.8
штиль 0 2000 м дым ?/? +28.1 +24.4 80 +39 +39 очень
душно
1009.5 1008.1
Ю 2 1200 м дым ?/? +26.9 +24.3 86 +38 +38 очень
душно
1009.0 1007.6
Ю 2 1200 м дым ?/? +27.2 +25.3 89 +39 +39 очень
душно
1010.4 1008.9 +25.2
Ю 4 5000 м дым 6/3 300 м
[Cu hum Ci fib]
+31.9 +22.6 58 +42 +49 опасность
перегрева
1011.1 1009.7
СВ 2 3000 м дым 6/4 300 м
[Cu hum Ci fib]
+34.2 +22.3 50 +43 +55 опасность
перегрева
1008.9 1007.5
СВ 3 1500 м дым 9/6 300 м
[Cu hum Ac As Ci fib]
+32.0 +22.7 58 +42 +43 опасность
перегрева
1007.3 1005.9
штиль 0 1500 м дым 8/4 300 м
[Cu hum Ac trans Ci fib]
+29.7 +23.3 69 +40 +40 очень
душно
1009.3 1007.9 +34.7
В 2 2000 м дым ?/? +28.2 +24.0 78 +39 +39 очень
душно
1011.3 1009.9
СЗ 1 2000 м дым ?/? +27.3 +24.3 84 +38 +38 очень
душно
1010.9 1009.5
штиль 0 1000 м дым ?/? +25.3 +24.2 94 +35 +35 очень
душно
1010.1 1008.7
ЮЗ 1 800 м дым ?/? +26.0 +23.9 88 +36 +36 очень
душно
1011.3 1009.9 +25.3
ЮВ 2 5000 м дым 9/5 300 м
[Cu hum Ac trans Ci fib]
+30.8 +23.9 67 +42 +47 опасность
перегрева
1011.3 1009.9
ЮВ 10 4000 м осадки на расстоянии 10/6 300 м
[Cb cap Ac As]
+28.2 +20.2 62 +35 +35 очень
душно
1009.3 1007.9
В 1 5000 м слаб. дождь {гроза} 10/5 300 м
[Sc Ac As Cs]
+25.2 +22.9 87 +33 +35 очень
душно
1007.9 1006.5 0.6
З 2 1500 м дым {гроза, дождь} 8/3 300 м
[Cu hum Ac trans Ci fib]
+26.7 +24.6 88 +38 +38 очень
душно
1010.4 1009.0 +34.0 0.2
штиль 0 2000 м дым 8/4 300 м
[Cu hum Ac trans Ci fib]
+25.4 +24.2 93 +35 +35 очень
душно
1012.1 1010.7
штиль 0 1500 м дым 9/6 300 м
[Cu hum Ac trans Ci fib]
+24.9 +24.1 95 +34 +34 очень
душно
1010.8 1009.4
штиль 0 2000 м дым 8/4 300 м
[Cu hum Ac trans Ci fib]
+24.4 +23.7 96 +33 +33 очень
душно
1009.5 1008.1
Ю 3 2000 м дым 6/3 300 м
[Cu hum Ac trans Ci fib]
+25.0 +24.0 94 +34 +35 очень
душно
1011.3 1009.9 +24.1 0.8
В 2 5000 м дым 8/4 300 м
[Cu hum Ac trans Ci fib]
+30.4 +23.9 68 +42 +48 опасность
перегрева
1012.5 1011.1
ЮВ 5 800 м гроза, ливневой дождь 10/8 300 м
[Cb cap Ac As Cs]
+26.1 +24.5 91 +37 +38 очень
душно
1009.7 1008.3 15
СВ 2 2000 м гроза, ливневой дождь 10/6 300 м
[Cb cap As op]
+26.4 +24.9 91 +38 +38 очень
душно
1009.0 1007.5 9
В 2 8000 м слаб. дождь {гроза} 10/3 210 м
[St As op]
+24.4 +23.6 95 +33 +33 очень
душно
1011.2 1009.8 +32.3 10
ЮВ 2 10 км {дождь} 9/4 300 м
[Sc Ac As Ci sp]
+24.2 +23.6 96 +33 +33 очень
душно
1012.7 1011.2
З 2 1200 м мгла 6/3 300 м
[Cu hum Ac trans Ci fib]
+23.8 +23.6 99 +32 +32 очень
душно
1010.8 1009.3
З 2 3000 м мгла 6/3 300 м
[Cu hum Ac trans Ci fib]
+23.4 +23.2 99 +33 +33 очень
душно
1009.0 1007.6
З 2 5000 м мгла 10/8 240 м
[Sc As op]
+23.4 +23.1 98 +33 +33 очень
душно
1010.5 1009.0 +23.2 34
Ю 3 10 км 9/4 300 м
[Cu hum Ac As Cs]
+28.5 +23.7 75 +39 +44 очень
душно
1011.9 1010.5
В 2 10 км 9/6 300 м
[Cu hum Ac As Cs]
+31.9 +21.7 55 +40 +45 очень
душно
1009.7 1008.3
Ю 2 10 км 8/4 300 м
[Cu hum Ac trans Ci fib]
+32.9 +20.7 49 +40 +42 очень
душно
1007.6 1006.2
СЗ 2 7000 м дым 8/1 300 м
[Cu hum Ac trans Ci fib]
+30.2 +23.9 69 +42 +42 опасность
перегрева
1009.4 1008.0 +33.2
В 1 8000 м дым 9/4 300 м
[Cu hum Ac trans Ci fib]
+26.8 +23.1 80 +36 +36 очень
душно
1011.7 1010.3
СЗ 1 4000 м дым 9/1 300 м
[Cu hum Ac trans Ci fib]
+25.8 +23.3 86 +35 +35 очень
душно
1010.4 1009.0
З 1 2000 м дым 6/0
[Ac trans Ci fib]
+24.6 +23.1 91 +33 +33 очень
душно
1009.5 1008.1
ЮЗ 2 3000 м мгла 8/0
[Ac trans Ci fib]
+25.2 +23.5 90 +34 +35 очень
душно
1011.3 1009.9 +23.3
штиль 0 10 км 9/6 300 м
[Cu hum Ac trans Ci fib]
+29.7 +23.6 70 +41 +46 опасность
перегрева
1011.9 1010.5
ЮВ 3 10 км 9/6 300 м
[Cu hum Ac trans Ci fib]
+32.7 +21.3 51 +40 +45 очень
душно
1009.2 1007.8
СВ 2 10 км 9/6 300 м
[Cu hum Ac trans Ci fib]
+33.9 +21.5 48 +42 +43 опасность
перегрева
1007.3 1005.9
В 2 7000 м дым 6/1 300 м
[Cu hum Ac trans Ci fib]
+31.2 +23.9 65 +43 +43 опасность
перегрева
1009.6 1008.2 +34.0
СВ 2 10 км 6/1 300 м
[Cu hum Ac trans Ci fib]
+27.4 +21.0 68 +34 +34 очень
душно
1011.6 1010.2
ЮВ 1 10 км 6/1 300 м
[Cu hum Ac trans Ci fib]
+25.7 +21.9 80 +33 +33 очень
душно
1010.4 1009.0
штиль 0 5000 м мгла 6/1 300 м
[Cu hum Ac trans Ci fib]
+24.4 +22.6 90 +32 +32 очень
душно
1009.7 1008.3
Ю 1 4000 м дым 6/0
[Ac trans Ci fib]
+25.2 +23.3 89 +34 +35 очень
душно
1011.6 1010.2 +23.8
ЮВ 1 6000 м дым 5/3 300 м
[Cu hum Ci fib]
+30.7 +22.8 63 +41 +52 опасность
перегрева
1012.0 1010.5
Местоположение метеостанции Палембанг (Индонезия): широта -2.90 долгота 104.70 высота над уровнем моря 10 м.
В архиве по умолчанию представлена погода в Палембанге за последнюю неделю. Архивные данные за месяц целиком и за предыдущие месяцы, начиная с января 2011 года, Вы можете получить, выбрав интересующий диапазон дат из раскрывающегося списка и нажав кнопку "Найти!".
*Определитесь, кто Вы:
Внимание! Время в таблицах - всемирное. Для получения местного времени необходимо прибавить поправку, которая равна 7 ч.
Смотрите также архив погоды в соседних городах и на ближайших метеорологических станциях:
Партнеры нашего сайта:      
Пояснения к столбцам:
  • Ветер - указаны скорость ветра в м/с - средняя за 10 мин, порывы в срок и между сроками (в фигурных скобках) и направление, откуда дует ветер: С - северный,
  • СВ - северо-восточный, В - восточный, ЮВ - юго-восточный, Ю - южный, ЮЗ - юго-западный, З - западный, СЗ - северо-западный.
  • Видимость - горизонтальная дальность видимости в метрах или километрах. При видимости от 1 до 10 км при отсутствии осадков обычно наблюдается дымка, при ухудшении видимости до 1 км и менее - туман. В сухую погоду видимость может ухудшаться дымом, пылью или мглою.
  • Явления - указаны атмосферные явления, наблюдавшиеся в срок или в последний час перед сроком; фигурными скобками обозначены явления, наблюдавшиеся между сроками (за 1-3 часа до срока); квадратными скобками обозначены град или гололедные отложения с указанием их диаметра в мм.
  • Облачность - указаны через наклонную черту общая и нижняя облачность в баллах и высота нижней границы облаков в метрах; квадратными скобками обозначены формы облаков: Ci - перистые, Cs - перисто-слоистые, Cc - перисто-кучевые, Ac - высококучевые, As - высокослоистые, Sc - слоисто-кучевые, Ns - слоисто-дождевые, Cu - кучевые, Cb - кучево-дождевые. Подробнее классификацию облаков см. в Атласе облаков (PDF).
  • T - Температура воздуха - температура, измеренная на высоте 2 м над землей.
  • Td - Температура точки росы - температура, при понижении до которой содержащийся в воздухе водяной пар достигнет насыщения.
  • f - Относительная влажность воздуха - влажноcть воздуха, измеренная на высоте 2 м над землей.
  • Te - Эффективная температура - температура, которую ощущает одетый по сезону человек в тени. Характеристика душности погоды. При расчете учитывается влияние влажности воздуха и скорости ветра на теплоощущения человека.
  • Tes - Эффективная температура на солнце - температура, которую ощущает человек, с поправкой на солнечный нагрев. Характеристика знойности погоды. Зависит от высоты солнца над горизонтом, облачности и скорости ветра. Ночью, в пасмурную погоду, а также при ветре 12 м/с и более поправка равна нулю.
  • P - Атмосферное давление - приведенное к уровню моря атмосферное давление.
  • Po - Атмосферное давление - измеренное на уровне метеостанции атмосферное давление.
  • Tmin - Минимальная температура - минимум температуры воздуха на высоте 2 м над землей.
  • Tmax - Максимальная температура - максимум температуры воздуха на высоте 2 м над землей.
  • R - Количество осадков - Количество выпавших осадков за период времени, мм. При наведении курсора мыши на число - период времени, за который выпало указанное количество осадков.
  • R24 - Количество осадков - Количество выпавших осадков за 24 часа, мм.
  • S - Снежный покров - Высота снежного покрова, см. При наведении курсора мыши на число - состояние снежного покрова и степень покрытия местности в баллах.